Vertical_Velocity
-1 -8 -2 -3 -1 -2 0 1 -0 -2 -2 -3 -2 -0 -2 -3 1 5 2 0 -1 -2 -2 1 4 0 6 -2 0 0 -1 -1 0 1 -1 1 1 -2 -1 -2 -1 0 -1 -1
-5 -2 -5 0 1 1 1 0 -2 -2 0 -1 0 -3 -1 -0 -5 -0 -6 -2 -3 1 -2 2 5 3 -1 1 0 1 -2 0 1 0 0 1 -1 -2 -0 0 -2 -1 -1 1
-1 -6 0 1 -1 -1 -1 -0 -0 -2 -0 -2 -1 -3 1 -2 1 3 4 10 6 -9 -6 12 2 4 -1 -2 -2 -1 -1 1 1 -0 0 1 -1 -1 -2 -2 -1 0 1 -0
-1 -2 0 0 -0 -1 0 -0 1 -0 -3 -5 -6 -7 -1 -1 -1 1 1 1 -5 -6 1 3 0 3 -1 0 2 1 1 0 -1 1 1 1 2 -3 -1 -1 2 0 -0 1
-8 -1 -1 -0 0 0 -6 0 0 -0 0 -4 -1 -7 -14 2 2 -1 -2 -2 1 -1 2 -2 -2 2 4 3 -2 1 1 1 1 0 0 1 -0 -0 -0 -0 -0 0 0 -0
-1 1 1 -1 -0 0 -1 -1 -2 -2 -2 -5 -3 -8 -9 -1 -9 -0 1 1 2 2 3 9 9 5 3 3 1 -1 1 -0 1 -0 1 3 1 1 -0 0 0 -1 -1 0
-2 -0 -0 0 -0 -2 -4 -5 -5 -8 -7 -7 -1 -4 -13 -1 -1 -1 -2 1 4 4 3 1 -1 -4 1 0 -1 1 0 0 2 2 2 2 1 0 0 -0 -1 -1 -1 0
-2 -14 -0 -1 -0 -3 -1 -6 -6 -4 -3 -5 -1 -4 -18 0 1 5 2 2 2 1 2 1 -1 -0 1 1 1 1 0 2 1 2 2 1 -0 0 -0 -0 0 1 0 -0
-1 -3 -1 -0 0 -3 -3 -2 -4 -2 -1 -3 -5 -5 -4 0 1 1 2 1 2 1 1 -0 2 3 1 -0 0 1 1 1 3 3 0 -1 0 0 1 2 1 1 1 -0
-3 -5 0 -1 -1 -0 -1 -0 -9 -4 -2 -0 -4 -1 -8 0 0 1 2 1 2 3 2 2 1 -0 0 2 1 0 2 4 1 -1 -1 1 3 2 1 1 1 1 1 1
-0 -4 -7 -3 -1 -3 -2 -1 0 -4 -4 -3 -1 -10 -4 -3 -2 -2 -0 0 -1 1 2 2 1 2 2 1 2 2 2 0 0 1 2 1 1 2 2 1 1 1 1 1
-1 -3 -1 -8 -1 0 0 -1 -3 -6 -5 -1 -3 -14 -0 -0 -2 -2 -0 0 2 2 1 1 1 -0 2 2 1 1 2 2 1 1 2 3 3 1 1 1 1 0 1 1
-1 -5 -3 -12 -10 -3 -0 -2 0 -1 -3 -2 -5 -12 0 0 1 3 -4 1 1 -0 0 0 1 1 -0 -0 1 1 2 2 2 2 2 1 1 0 -1 -1 -0 -0 -1 -1
-1 -0 -3 -8 -9 -3 0 0 -0 -3 -2 -3 -6 -3 0 -0 -0 2 5 2 -0 -1 -1 -2 -0 0 3 4 4 4 2 1 0 0 0 -1 -1 -0 0 -1 -2 -2 -1 -0
-2 0 1 -1 -1 1 -1 -1 -0 -0 -4 -5 -4 -1 -1 -3 -3 -5 -4 2 0 -0 1 0 0 2 3 1 -0 -0 -0 1 1 0 1 -0 -1 -1 -2 -0 0 1 2 1
0 -4 0 -2 -1 1 0 -0 0 -0 -1 1 1 -8 -4 -0 5 4 -1 -0 1 2 2 1 0 -0 -1 -0 2 1 0 0 1 -0 -2 -0 1 2 0 0 -0 -2 -4 -2
0 -0 -1 -4 0 -1 -3 -5 -1 -1 -0 -6 -2 -11 -0 1 1 -2 -1 -1 -5 -3 -2 -1 -0 2 1 2 1 0 -0 -1 -0 0 -0 -0 -0 1 -1 -2 -2 -0 -1 -2
-1 0 0 -2 -2 -1 -15 0 -0 -2 -1 0 0 0 -1 -1 2 1 6 -4 -0 1 1 3 1 1 0 -1 -0 -1 0 1 0 -0 -0 -1 -2 -3 -1 1 -2 -3 -2 -1
-1 -1 -2 -0 -0 -10 -4 -1 -1 1 -7 0 -2 1 2 1 -0 -1 1 4 -1 -3 0 -1 -1 -0 1 -1 1 1 -0 -1 -0 -0 -2 -1 0 1 -3 -5 -2 0 -2 -4
-1 -2 -3 -1 1 -0 -2 -1 1 0 -6 1 -1 -0 -2 1 -1 -4 1 1 3 2 -1 -3 1 1 2 1 0 -0 1 1 -0 3 3 -1 -4 -2 -1 1 -1 -2 -2 -1
-0 0 -2 -1 -1 -10 -2 -1 0 -3 -13 0 1 -2 -1 -2 -5 -2 0 5 4 0 -2 1 0 -1 1 1 1 1 -2 0 -1 -4 -3 0 1 -1 -1 -3 -1 -1 -1 -4
-6 -4 -1 0 1 -11 -1 -0 -3 -6 -0 0 0 1 -1 -1 -0 1 2 1 3 0 2 4 -1 1 0 1 0 -1 -1 -1 -0 -0 -1 -2 -3 -2 -2 -2 -1 -2 -1 -0
-5 -11 -10 -13 -15 -4 -2 -4 -2 -1 -1 -1 -0 -0 -0 -2 1 1 0 1 2 -0 -1 1 -0 -0 -0 -1 -1 -0 0 0 -1 1 1 -1 -2 -3 -1 -4 -2 1 3 -1
-2 -0 -2 -0 -5 -3 -2 0 -1 -1 -3 -2 1 0 1 -3 0 -1 0 -0 -1 1 -1 1 -0 -0 -1 -1 0 0 0 -1 -1 -2 -1 2 0 -2 -1 1 -0 -3 -4 -2
-10 -1 -3 -5 -3 2 -3 -4 3 2 -1 -1 -0 -3 -2 -1 -1 -2 -1 1 2 -1 -1 -3 -2 -0 -0 1 0 -2 -2 -1 -0 0 1 -0 -0 1 -1 -2 -5 -2 1 -1
-4 -8 -3 -11 -5 -2 -5 -4 -0 -2 -4 -2 -2 -1 3 1 -2 -0 -1 -1 -2 -1 -1 -0 0 1 0 -1 -1 1 -0 -2 -1 -1 -1 -0 -2 -2 -2 -1 -2 1 -2 -3
Height
1508 1514 1517 1512 1511 1508 1508 1510 1511 1502 1498 1501 1505 1505 1505 1506 1507 1505 1505 1508 1516 1519 1524 1528 1529 1530 1533 1534 1537 1540 1542 1544 1546 1547 1548 1549 1549 1551 1552 1553 1554 1554 1554 1554
1512 1515 1508 1507 1507 1506 1507 1507 1509 1501 1496 1498 1504 1505 1501 1504 1501 1502 1495 1505 1512 1515 1521 1522 1526 1524 1529 1531 1534 1537 1539 1542 1544 1546 1546 1547 1548 1548 1550 1551 1552 1553 1553 1553
1512 1508 1503 1504 1504 1503 1504 1506 1505 1505 1498 1500 1502 1507 1502 1499 1498 1497 1497 1495 1498 1509 1516 1516 1518 1519 1523 1527 1531 1534 1537 1540 1542 1543 1544 1545 1545 1546 1548 1549 1550 1551 1551 1551
1509 1505 1505 1503 1504 1505 1509 1503 1500 1500 1507 1518 1503 1527 1504 1497 1495 1492 1490 1493 1498 1505 1511 1515 1515 1516 1520 1524 1528 1532 1535 1537 1539 1541 1543 1544 1544 1544 1546 1547 1548 1549 1549 1550
1514 1509 1507 1505 1506 1505 1506 1501 1500 1496 1504 1509 1505 1525 1502 1491 1495 1491 1488 1491 1495 1500 1503 1507 1510 1515 1519 1521 1524 1529 1533 1535 1537 1539 1540 1541 1541 1543 1544 1545 1546 1547 1547 1548
1509 1508 1508 1507 1504 1503 1501 1499 1502 1505 1513 1532 1509 1520 1510 1495 1484 1483 1483 1487 1492 1495 1500 1504 1510 1514 1517 1519 1523 1527 1531 1533 1535 1536 1538 1539 1540 1541 1542 1544 1544 1545 1546 1546
1510 1509 1507 1507 1506 1503 1503 1514 1537 1534 1539 1533 1513 1524 1499 1484 1482 1476 1476 1483 1487 1490 1496 1502 1507 1512 1515 1517 1522 1526 1528 1531 1533 1534 1536 1537 1538 1540 1541 1542 1542 1543 1543 1543
1525 1527 1508 1506 1507 1507 1506 1513 1533 1525 1535 1526 1511 1515 1498 1487 1484 1478 1479 1485 1489 1494 1498 1502 1506 1510 1513 1516 1520 1524 1527 1529 1531 1533 1534 1535 1536 1538 1539 1539 1540 1540 1541 1541
1520 1513 1508 1507 1507 1509 1505 1513 1508 1516 1516 1524 1516 1499 1489 1488 1489 1487 1486 1489 1493 1496 1500 1503 1507 1509 1511 1515 1519 1523 1526 1528 1529 1530 1532 1533 1535 1536 1536 1537 1538 1538 1538 1539
1511 1520 1510 1509 1508 1508 1508 1509 1518 1528 1516 1512 1514 1497 1502 1491 1490 1490 1490 1491 1494 1497 1500 1503 1505 1508 1512 1515 1519 1521 1524 1525 1527 1528 1530 1531 1532 1533 1534 1535 1535 1535 1536 1536
1510 1514 1515 1510 1512 1508 1512 1511 1508 1511 1517 1515 1518 1510 1489 1486 1486 1487 1489 1491 1493 1496 1500 1503 1506 1509 1512 1515 1517 1519 1521 1523 1525 1527 1528 1529 1530 1531 1531 1532 1533 1534 1534 1533
1510 1513 1519 1511 1505 1504 1503 1502 1503 1518 1505 1511 1514 1508 1482 1481 1482 1486 1490 1493 1496 1498 1501 1504 1507 1509 1511 1513 1516 1518 1520 1522 1523 1525 1526 1527 1528 1529 1530 1531 1531 1532 1532 1532
1514 1516 1530 1513 1510 1504 1504 1501 1498 1502 1510 1508 1511 1500 1484 1483 1485 1486 1489 1494 1496 1499 1502 1504 1506 1508 1510 1512 1514 1516 1518 1520 1522 1523 1525 1526 1527 1528 1529 1530 1530 1530 1530 1529
1513 1515 1514 1516 1505 1502 1504 1499 1498 1501 1523 1504 1500 1485 1487 1486 1487 1488 1489 1491 1495 1499 1501 1504 1506 1508 1510 1512 1514 1515 1517 1519 1521 1522 1524 1525 1526 1527 1528 1528 1527 1527 1526 1525
1516 1517 1509 1506 1503 1500 1497 1495 1495 1504 1496 1497 1485 1482 1477 1480 1482 1484 1488 1491 1494 1497 1500 1502 1505 1507 1509 1511 1512 1514 1517 1518 1520 1522 1523 1524 1525 1525 1526 1525 1525 1524 1522 1520
1513 1516 1507 1507 1495 1497 1494 1490 1490 1490 1487 1487 1484 1477 1471 1471 1477 1482 1482 1486 1490 1495 1499 1502 1504 1506 1508 1510 1512 1514 1516 1518 1521 1522 1523 1523 1524 1524 1523 1522 1521 1519 1517 1515
1512 1514 1514 1506 1493 1492 1493 1479 1480 1479 1475 1474 1480 1469 1468 1471 1473 1476 1479 1482 1486 1490 1494 1498 1502 1505 1508 1510 1512 1514 1516 1519 1520 1521 1522 1522 1522 1521 1520 1518 1516 1514 1511 1509
1509 1510 1511 1509 1499 1501 1474 1470 1470 1472 1468 1469 1467 1467 1467 1469 1473 1475 1477 1480 1485 1489 1494 1498 1502 1505 1508 1510 1513 1514 1516 1518 1519 1519 1520 1519 1518 1517 1515 1513 1511 1508 1505 1502
1506 1511 1513 1509 1508 1487 1467 1473 1473 1471 1469 1464 1464 1468 1469 1472 1475 1477 1479 1482 1484 1489 1494 1498 1501 1504 1507 1510 1512 1513 1515 1516 1517 1517 1517 1516 1515 1513 1510 1508 1506 1502 1498 1495
1507 1510 1513 1514 1505 1495 1474 1473 1471 1470 1475 1465 1464 1468 1470 1472 1479 1477 1477 1480 1484 1488 1492 1496 1500 1503 1507 1509 1511 1512 1513 1514 1515 1514 1513 1512 1511 1508 1505 1502 1499 1496 1493 1489
1512 1514 1515 1516 1512 1491 1472 1472 1472 1476 1475 1467 1466 1467 1470 1471 1472 1473 1476 1480 1484 1487 1491 1495 1499 1502 1506 1508 1509 1511 1511 1512 1512 1512 1511 1508 1505 1502 1499 1496 1493 1489 1486 1483
1498 1509 1510 1511 1509 1501 1470 1473 1474 1470 1467 1467 1467 1467 1468 1470 1472 1475 1478 1480 1483 1487 1491 1495 1499 1502 1505 1506 1507 1508 1509 1509 1508 1507 1505 1504 1501 1498 1494 1491 1488 1484 1480 1477
1489 1481 1488 1488 1482 1467 1465 1464 1465 1466 1466 1465 1466 1467 1468 1469 1473 1476 1479 1482 1485 1488 1492 1495 1498 1501 1503 1504 1505 1506 1506 1505 1504 1503 1500 1496 1494 1492 1489 1485 1484 1480 1476 1471
1474 1471 1475 1474 1464 1462 1461 1462 1462 1462 1463 1464 1465 1466 1468 1469 1473 1476 1479 1482 1485 1488 1491 1495 1497 1499 1500 1502 1502 1503 1502 1501 1499 1497 1495 1491 1488 1484 1482 1479 1477 1475 1472 1468
1467 1467 1467 1462 1458 1458 1458 1458 1458 1458 1460 1462 1463 1464 1466 1468 1471 1474 1478 1482 1484 1486 1489 1492 1495 1497 1498 1499 1499 1498 1497 1495 1493 1491 1489 1486 1482 1479 1476 1474 1471 1470 1468 1465
1457 1458 1459 1449 1451 1451 1452 1453 1453 1454 1455 1457 1460 1462 1464 1466 1468 1472 1477 1480 1483 1485 1487 1489 1491 1493 1495 1495 1495 1494 1491 1489 1488 1486 1483 1480 1476 1474 1471 1468 1465 1465 1462 1459